Regional Weather Roundup
Issued by NWS

Home | Current Version | Previous Version | Text Only | Print | Product List | Glossary On
Versions: 1 2 3 4 5 6 7 8 9 10 11 12 13 14 15 16 17 18 19 20 21 22 23 24 25 26 27 28 29 30 31 32 33 34 35 36 37 38 39 40 41 42 43 44 45 46 47 48 49 50
000
ASUS43 KLSX 121357
RWRMO

WEATHER SUMMARY FOR MISSOURI
NATIONAL WEATHER SERVICE SPRINGFIELD MO
800 AM CST TUE DEC 12 2017

NOTE: "FAIR" INDICATES FEW OR NO CLOUDS BELOW 12,000 FEET WITH NO
       SIGNIFICANT WEATHER AND/OR OBSTRUCTIONS TO VISIBILITY.
       CURRENT SKY AND/OR WEATHER CONDITIONS ARE NOT AVAILABLE FOR
       CHILLICOTHE AND FARMINGTON.

MOZ001>031-035>038-043-044-053-054-121500-
...NORTHERN AND WESTERN MISSOURI...

CITY           SKY/WX    TMP DP  RH WIND       PRES   REMARKS
KANSAS CTY INT CLOUDY    19  14  81 NW6       30.34R WCI  11
LEE`S SUMMIT   CLEAR     21  13  71 NW7       30.35R WCI  12
ST JOSEPH      CLOUDY    18  13  80 CALM      30.35F
CHILLICOTHE      N/A     19  11  70 NW7       30.34R WCI  10

$$
MOZ066>068-077>081-088>096-101>105-121500-
...SOUTHWEST MISSOURI...

CITY           SKY/WX    TMP DP  RH WIND       PRES   REMARKS
SPRINGFIELD    CLEAR     26  19  74 N9        30.28R WCI  17

$$
MOZ032>034-039>042-045>050-055>058-069>072-121500-
...CENTRAL MISSOURI...

CITY           SKY/WX    TMP DP  RH WIND       PRES   REMARKS
COLUMBIA       NOT AVBL
JEFFERSON CITY CLEAR     24  17  74 NW6       30.32R WCI  17
ROLLA          CLEAR     23  17  78 NW14      30.26R WCI  11
SEDALIA        CLEAR     21  13  71 NW8       30.33R WCI  11
WARRENSBURG    CLEAR     21  14  73 NW6       30.34R WCI  14

$$
MOZ051-052-059>065-121500-
...EAST CENTRAL MISSOURI...

CITY           SKY/WX    TMP DP  RH WIND       PRES   REMARKS
ST LOUIS INTL  PTCLDY    28  19  69 NW14G22   30.23R WCI  17

$$
MOZ072>076-082>087-097>100-106>115-121500-
...SOUTH CENTRAL AND SOUTHEAST MISSOURI...

CITY           SKY/WX    TMP DP  RH WIND       PRES   REMARKS
CAPE GIRARDEAU MOCLDY    35  21  56 NW17G31   30.17R WCI  25
POPLAR BLUFF   CLEAR     38  24  57 NW14G20   30.19R WCI  30
WEST PLAINS    CLEAR     28  19  69 NW13      30.24R WCI  17

$$



USA.gov is the U.S. government's official web portal to all federal, state and local government web resources and services.